Location: Newark
(45.6000°N, 12.8833°E)
Time: 16:01:19
(UTC+00:00)

Vanguard 3 - Pass Details

Date: 26 November 2019
Orbit: 508 x 3263 km, 33.3° (Epoch: 10 December)

Event Time Altitude Azimuth Distance (km) Brightness Sun altitude
Rises 16:56:25 0° 278° (W) 7,233 13.3 -14.9°
Reaches altitude 10° 17:02:22 10° 269° (W) 6,168 12.9 -15.9°
Maximum altitude 17:16:53 28° 220° (SW) 4,225 11.3 -18.4°
Drops below altitude 10° 17:28:03 10° 168° (SSE) 4,667 11.0 -20.3°
Sets 17:31:49 0° 157° (SSE) 5,278 11.2 -21.0°
